Home > Weather > Tamanrasset > Past weeks

Flag for Algeria Past Weather in Tamanrasset, Algeria — Yesterday and Last 2 Weeks

Now
95 °F

Scattered clouds.


Feels Like: N/A
Forecast: 71 / 97 °F
Wind: 5 mph from Northwest

Location: Tamanrasset / Aguenna

Current Time: May 30, 2016 at 3:42:23 PM

Latest Report: May 30, 2016 at 3:00 PM


Visibility: N/A

Pressure: 30.15 "Hg (25.89 "Hg at 1375m altitude)

Humidity: N/A

Dew Point: N/A

Location of TamanrassetLocation

Past Weather in Tamanrasset — Graph

°F

Tamanrasset Temperature Yesterday

Maximum temperature yesterday: 93 °F (at 11:00 AM)
Minimum temperature yesterday: 75 °F (at 11:00 PM)
Average temperature yesterday: 85 °F

High & Low Weather Summary for the Past Weeks

 TemperatureHumidityPressure
High99 °F (May 15, 2:00 PM)69% (May 23, 8:00 PM)30.30 "Hg (May 23, 8:00 PM)
Low64 °F (May 21, 6:30 AM)7% (May 28, 6:30 PM)30.04 "Hg (May 20, 3:30 PM)
Average84 °F22%30.16 "Hg
* Reported May 15 2:00 PM — May 30 2:30 PM, Tamanrasset, Weather by CustomWeather, © 2016

Note: Actual official high and low records may vary slightly from our data, if they occured in-between our weather recording intervals... More about our weather records

Advertising

Tamanrasset Weather History for the Previous 24 Hours

Scroll right to see more
 ConditionsComfort  
Time TempWeatherWind HumidityBarometerVisibility
2:30 PM
Mon, May 30
95 °FScattered clouds.12 mphN/A30.18 "HgN/A
2:00 PM97 °FScattered clouds.8 mphN/A30.18 "HgN/A
1:30 PM95 °FScattered clouds.9 mphN/A30.18 "HgN/A
1:00 PM97 °FScattered clouds.9 mphN/A30.21 "HgN/A
12:30 PM97 °FScattered clouds.12 mphN/A30.21 "HgN/A
12:00 PM93 °FScattered clouds.10 mphN/A30.21 "HgN/A
11:00 AM93 °FSunny.5 mphN/A30.24 "Hg10 mi
10:00 AM91 °FPassing clouds.16 mphN/A30.24 "HgN/A
9:30 AM91 °FScattered clouds.14 mphN/A30.24 "Hg3 mi
9:00 AM90 °FScattered clouds.13 mph7%30.24 "Hg3 mi
8:30 AM88 °FScattered clouds.9 mph7%30.24 "Hg3 mi
8:00 AM84 °FScattered clouds.10 mph8%30.24 "Hg4 mi
7:30 AM81 °FScattered clouds.9 mph9%30.24 "Hg2 mi
7:00 AM79 °FScattered clouds.8 mph10%30.21 "Hg2 mi
6:30 AM75 °FPassing clouds.9 mph11%30.21 "Hg2 mi
6:00 AM73 °FClear.10 mph11%30.21 "Hg3 mi
5:30 AM70 °FClear.7 mph12%30.18 "Hg4 mi
5:00 AM70 °FClear.2 mph12%30.18 "Hg4 mi
4:30 AM72 °FClear.5 mph11%30.18 "Hg4 mi
4:00 AM73 °FClear.3 mph11%30.18 "Hg4 mi
3:30 AM72 °FClear.5 mph12%30.18 "Hg4 mi
3:00 AM75 °FClear.5 mph10%30.18 "Hg4 mi
2:00 AM75 °FClear.3 mph10%30.21 "Hg4 mi
1:30 AM75 °FClear.No wind10%30.21 "Hg4 mi
1:00 AM75 °FClear.No wind10%30.24 "Hg4 mi
12:30 AM75 °FClear.No wind10%30.24 "Hg4 mi
12:00 AM77 °FClear.5 mph10%30.24 "Hg4 mi
11:30 PM
Sun, May 29
75 °FClear.7 mph10%30.24 "Hg4 mi
11:00 PM75 °FClear.7 mph10%30.24 "Hg4 mi
10:30 PM77 °FClear.6 mph10%30.24 "Hg4 mi
10:00 PM81 °FClear.No windN/A30.24 "Hg4 mi
9:30 PM82 °FClear.5 mphN/A30.24 "Hg4 mi
9:00 PM84 °FClear.6 mph9%30.24 "Hg4 mi
8:30 PM84 °FClear.6 mphN/A30.21 "Hg4 mi
8:00 PM86 °FScattered clouds.7 mphN/A30.21 "Hg4 mi
7:30 PM88 °FScattered clouds.5 mphN/A30.21 "Hg4 mi
7:00 PM90 °FScattered clouds.6 mphN/A30.18 "Hg4 mi
6:30 PM90 °FClear.7 mphN/A30.18 "Hg3 mi
6:00 PM91 °FHaze.9 mphN/A30.18 "Hg2 mi
5:30 PM91 °FHaze.8 mphN/A30.18 "Hg2 mi
5:00 PM91 °FHaze.10 mphN/A30.18 "Hg2 mi
4:30 PM93 °FHaze.10 mphN/A30.18 "Hg1 mi
4:00 PM91 °FHaze.14 mphN/A30.18 "Hg1 mi
3:30 PM91 °FHaze.9 mphN/A30.21 "Hg1 mi
3:00 PM90 °FHaze.8 mphN/A30.21 "Hg1 mi
Weather by CustomWeather, © 2016

See weather overviewHow to use our weather pages